Weather History for Florence, SC

Change the Weather History Date:

Monday, November 7, 2011

  Actual Average Record
Temperature  
Mean Temperature 61 °F 58 °F  
Max Temperature 75 °F 70 °F 81 °F (1975)
Min Temperature 46 °F 46 °F 26 °F (1967)
Degree Days  
Heating Degree Days 4 8  
Month to date heating degree days 73 51  
Since 1 July heating degree days 227 168  
Cooling Degree Days 0 1  
Month to date cooling degree days 0 7  
Year to date cooling degree days 2430 2049  
Growing Degree Days 10 (Base 50)    
Moisture  
Dew Point 49 °F    
Average Humidity 69    
Maximum Humidity 93    
Minimum Humidity 44    
Precipitation  
Precipitation 0.00 in 0.09 in 1.59 in (2006)
Month to date precipitation 0.30 0.62  
Year to date precipitation 26.33 37.85  
Sea Level Pressure  
Sea Level Pressure 30.31 in    
Wind  
Wind Speed 4 mph (NNE)    
Max Wind Speed 12 mph    
Max Gust Speed 15 mph    
Visibility 10 miles    
Events      
T = Trace of Precipitation, MM = Missing Value Source: NWS Daily Summary

Daily Weather History Graph

Daily Weather History Graph

Search for Another Location

Airport:

Trip Planner

Search our weather history database for the weather conditions in past years. The results will help you decide how hot, cold, wet, or windy it might be!

Date:

Astronomy

Nov. 07, 2011 Rise Set
Actual Time 6:43 AM EST 5:20 PM EST
Civil Twilight 6:17 AM EST 5:46 PM EST
Nautical Twilight 5:47 AM EST 6:16 PM EST
Astronomical Twilight 5:18 AM EST 6:46 PM EST
Moon 3:26 PM EST (11/7) 3:50 AM EST (11/7)
Length of Visible Light 11h 29m
Length of Day
10h 36m
Waxing Gibbous, 91% of the Moon is Illuminated
Nov 7
Waxing Gibbous
Nov 10
Full
Nov 18
Last Quarter
Nov 25
New
Dec 2
First Quarter

Hourly Weather History & Observations

Time (EST) Temp. Dew Point Humidity Pressure Visibility Wind Dir Wind Speed Gust Speed Precip Events Conditions
12:53 AM 51.1 °F 46.9 °F 86% 30.36 in 10.0 mi North 3.5 mph - N/A   Clear
1:53 AM 50.0 °F 46.9 °F 89% 30.35 in 10.0 mi NNE 4.6 mph - N/A   Clear
2:53 AM 48.2 °F 46.4 °F 93% 30.35 in 10.0 mi NNE 4.6 mph - N/A   Clear
3:53 AM 48.0 °F 45.0 °F 89% 30.35 in 10.0 mi North 4.6 mph - N/A   Clear
4:53 AM 46.9 °F 45.0 °F 93% 30.35 in 10.0 mi NNE 3.5 mph - N/A   Clear
5:53 AM 46.9 °F 45.0 °F 93% 30.36 in 10.0 mi North 3.5 mph - N/A   Clear
6:53 AM 46.9 °F 44.1 °F 90% 30.36 in 10.0 mi NNW 3.5 mph - N/A   Clear
7:53 AM 51.8 °F 46.4 °F 82% 30.37 in 10.0 mi North 3.5 mph - N/A   Clear
8:53 AM 55.9 °F 48.0 °F 75% 30.38 in 10.0 mi NNE 5.8 mph - N/A   Clear
10:53 AM 66.0 °F 52.0 °F 60% 30.36 in 10.0 mi ENE 5.8 mph - N/A   Clear
12:53 PM 73.0 °F 52.0 °F 48% 30.30 in 10.0 mi ENE 4.6 mph - N/A   Clear
1:53 PM 73.0 °F 51.1 °F 46% 30.28 in 10.0 mi East 4.6 mph - N/A   Partly Cloudy
2:53 PM 73.9 °F 50.0 °F 43% 30.27 in 10.0 mi ENE 5.8 mph - N/A   Partly Cloudy
3:53 PM 73.0 °F 50.0 °F 44% 30.26 in 10.0 mi ENE 5.8 mph - N/A   Clear
4:53 PM 70.0 °F 51.1 °F 51% 30.25 in 10.0 mi NE 5.8 mph - N/A   Clear
5:53 PM 60.8 °F 51.8 °F 72% 30.27 in 10.0 mi North 3.5 mph - N/A   Clear
6:53 PM 60.1 °F 52.0 °F 75% 30.28 in 10.0 mi North 3.5 mph - N/A   Clear
7:53 PM 59.0 °F 51.1 °F 75% 30.28 in 10.0 mi NNE 3.5 mph - N/A   Clear
8:53 PM 55.4 °F 50.0 °F 82% 30.29 in 10.0 mi SE 3.5 mph - N/A   Clear
9:53 PM 53.1 °F 50.0 °F 89% 30.29 in 10.0 mi Calm Calm - N/A   Clear
10:53 PM 55.0 °F 51.1 °F 86% 30.28 in 10.0 mi NE 4.6 mph - N/A   Clear
11:53 PM 54.0 °F 51.1 °F 90% 30.27 in 10.0 mi North 3.5 mph - N/A   Clear